Tracking 19636 objects as of 24-May-2019
HD Live streaming from Space Station
objects crossing your sky now

OPS 9433 (DSCS 2-3)

Track OPS 9433 (DSCS 2-3) now!
OPS 9433 (DSCS 2-3) is classified as:


NORAD ID: 6973
Int'l Code: 1973-100A
Perigee: 36,412.6 km
Apogee: 36,673.9 km
Inclination: 11.5 °
Period: 1,474.6 minutes
Semi major axis: 42914 km
RCS: 5.3322 m2 (large)
Launch date: December 13, 1973
Source: United States (US)
Launch site: AIR FORCE EASTERN TEST RANGE (AFETR)
aabbcc
Your satellite tracking list
Your tracking list is empty




NASA's NSSDC Master Catalog

Two Line Element Set (TLE):
1  6973U 73100A   19143.82035392 -.00000166 +00000-0 +00000-0 0  9990
2  6973 011.4648 308.4484 0030440 159.0013 032.8766 00.97656444094620
Source of the keplerian elements: AFSPC